Погода в Белоярске

Россия / Ямало-Ненецкий автономный округ     66°52′05″N   68°08′34″E
темп.,
°C
ветер,
м/с
пор.,
м/с
влажн.,
%
обл.,
%
осадки,
мм/ч
давл.,
гПа
погр.,
м
17 августа, ср
ср1723:00+6с712738 0.1 1019255
02:00+6ссз71275100 0.0 1019313
05:00+7ссз91373100 0.1 1019479
08:00+8ссз10147299 0.0 1020652
11:00+9ссз12156098 0.0 1020780
14:00+10ссз111558100 0.0 1020651
17:00+10с111658100 0.0 1021611
20:00+9с101664100 0.0 1022494
18 августа, чт
чт1823:00+8с91573100 0.0 1023374
02:00+7с8137799 0.0 1024315
05:00+7с7128099 0.0 1025270
08:00+8с7107433 0.0 1026289
11:00+10ссв5769100 0.0 1026375
14:00+11ссв3463100 0.0 1026489
17:00+12ссв236275 0.0 1025547
20:00+11в336797 0.0 102516
19 августа, пт
пт1923:00+9вюв237560 0.0 102512
02:00+8ююв1177100 0.0 102410
05:00+8ююз3378100 0.0 102319
08:00+11юз346764 0.0 1022112
11:00+16юз565289 0.0 1020256
14:00+17зюз685214 0.1 1018298
17:00+19зсз71059100 0.1 1017452
20:00+14зюз569696 0.9 101681
20 августа, сб
сб2023:00+12ссв81194100 1.1 1017216
02:00+9с14217977 0.4 1019479
05:00+8с11178238 0.4 1021494
08:00+9с1217627 0.0 1022583
11:00+11с1216462 0.0 1023627
14:00+13с1215435 0.0 1023670
17:00+12с1115455 0.0 1024600
20:00+10с915566 0.0 1025307
21 августа, вс
вс2123:00+8с814595 0.0 1026242
02:00+6с610705 0.0 1027170
05:00+5с510790 0.0 1028154
08:00+8ссв68700 0.0 1029224
11:00+10ссв5657100 0.0 1029404
14:00+11ссв344893 0.0 1029477
17:00+12всв234691 0.0 1029420
20:00+11юв225181 0.0 102913